SL-14 DEB, 45292

Orbit data source: Space-Track

SL-14 DEB, 45292 is space debris in LEO originally from a launch on Thu, 15 Aug 1991 UTC launched from the Plesetsk Missile And Space Complex (PKMTR). Debris objects in space refer to the collection of defunct objects orbiting the Earth. Examples of debris include non-operational satellites, rocket bodies, and fragments generated from explosions, collisions, or faulty payload assembly.

Loading next visibility...
Identifier
45292, 1991-056AE
Orbit
LEO
Country
Flag of CISCIS
Related business
Manufacturer
Unknown
Mission
Spacecraft
Bus & Motor
Unknown
Mass
Unknown
Launch date (UTC)
1991-08-15 (35 years ago)
Launch vehicle
Unknown
Launch site
Plesetsk Missile And Space Complex (PKMTR)
Object type
Payload
Rocket body
Debris
Shape & HBR
Unknown shape, 0.1 m
Radar Cross Section
Small (<0.1 m²)

Expand to show TLE details & history
Last TLE update: 1 day ago

TLE from 1 day ago
0 SL-14 DEB
1 45292U 91056AE  26174.24247504  .00003559  00000-0  61318-2 0  9994
2 45292  82.6179 108.6781 0073606 150.7282 209.8011 13.42913712308369
Epoch: 2026-06-23T05:49Z
TLE epoch observation values (Epoch: 2026-06-23T05:49:09.843Z)
Latitude
0.00001°
Longitude
109.97024°
Altitude
1,149.154 km
Speed
7.255 km/s
True Right ascension
07h 14m 42s
True Declination
0° 00' 00"
Sunlit
Object was in daylight at epoch
Visualization orbit readout
Latitude
Unknown
Longitude
Unknown
Altitude
Unknown
Speed
Unknown
Apparent Right ascension
Unknown
Apparent Declination
Unknown
Sunlit
N/A
Visualization observer readout
Local Sidereal Time
20:19:04
Azimuth
Unknown
Elevation
Unknown
Doppler factor
Unknown
Orbital elements
Apogee altitude
1,150.662 km
Perigee altitude
1,040.639 km
Semi-major axis
7,473.788 km
Eccentricity
0.00736
Inclination
82.6179°
RAAN
108.6781°
Arg. of periapsis
150.7282°
True anomaly
209.38523°
Mean anomaly
209.8011°
Eccentric anomaly
209.59284°
Mean motion
3.35917 °/min
Orbital period
107.17 mins
BSTAR
0.0061318
Loading maneuver chart data...
Computing Atmospheric mass density...
Loading historical data...
Loading historical data...
Loading historical data...
Loading historical data...
Loading historical data...
Loading historical data...
Loading historical data...

Documentation

Showing up to 5 results
|